Location: Unspecified
(0.0000°N, 0.0000°E)
Time: 19:36:23
(UTC+00:00)

O3B FM13 - Visible Passes

Search period start: 14 January 2025 00:00
Search period end: 24 January 2025 00:00
Orbit: 8061 x 8071 km, 0.1° (Epoch: 13 January)

Date Brightness Start Highest point End Pass type
(mag) Time Alt. Az. Time Alt. Az. Time Alt. Az.
14 Jan ? 04:43:01 12° W 05:35:51 90° S 06:30:02 10° E visible
14 Jan ? 22:41:33 10° W 23:55:11 57° E 00:30:04 10° E visible
15 Jan ? 04:43:17 12° W 05:35:51 90° S 06:30:02 10° E visible
15 Jan ? 22:41:33 10° W 23:55:27 56° E 00:30:04 10° E visible
16 Jan ? 04:43:33 12° W 05:35:51 90° S 06:30:02 10° E visible
16 Jan ? 22:41:33 10° W 23:55:43 56° E 00:30:04 10° E visible
17 Jan ? 04:43:49 12° W 05:35:51 90° S 06:30:02 10° E visible
17 Jan ? 22:41:33 10° W 23:55:59 55° E 00:30:04 10° E visible
18 Jan ? 04:44:05 13° W 05:35:51 90° S 06:30:02 10° E visible
18 Jan ? 22:41:33 10° W 23:56:15 55° E 00:30:04 10° E visible
19 Jan ? 04:44:21 13° W 05:35:51 90° S 06:30:02 10° E visible
19 Jan ? 22:41:33 10° W 23:56:30 54° E 00:30:04 10° E visible
20 Jan ? 04:44:37 13° W 05:35:51 90° S 06:30:02 10° E visible
20 Jan ? 22:41:33 10° W 23:56:46 54° E 00:30:04 10° E visible
21 Jan ? 04:44:53 14° W 05:35:51 90° S 06:30:02 10° E visible
21 Jan ? 22:41:33 10° W 23:57:02 54° E 00:30:04 10° E visible
22 Jan ? 04:45:08 14° W 05:35:51 90° S 06:30:02 10° E visible
22 Jan ? 22:41:33 10° W 23:57:17 53° E 00:30:04 10° E visible
23 Jan ? 04:45:23 14° W 05:35:51 90° S 06:30:02 10° E visible
